Content
SEND FEEDBACK

Daily
Averages
Monthly
Summary
United States of America

MOUNT PLEASANT, FLORIDA


Home > North America > United States > Florida
Elevation: 171 feet     Latitude: 30 36N     Longitude: 084 33W

WEATHER
 
SELECT A DAY
Number of Records: 211,170;   Date Range: 1/1/95 - 9/3/14
 
SHARE

PRINT THIS DATA

[ ← Previous Day ]
WEATHER ALMANAC - JANUARY 31, 2013
[ Next Day → ]
[ °C ]   °F
Weather ElementAverageHighLow
Temperature47.5 °F57.9 °F (2:53 pm)33.1 °F (11:53 pm)
Dewpoint26.6 °F37.9 °F (1:53 am)18 °F (3:53 pm)
Humidity48.1 %82 % (11:53 pm)21 % (3:53 pm)
Barometer30.18 in30.29 in (10:53 pm)30.01 in (1:53 am)
Wind Speed8.3 mph17.3 mph (2:53 am)
Wind Gust23 mph (1:53 am)
Weather ElementAverage
Visibility10 mi
Wind DirectionSW (227.8 °)

Weather ElementTotal
Precipitation---
Heating Degree Days19.5 (Base 65)
Averaged from 23 records on January 31, 2013
WEATHER CONDITIONS BREAKOUT
WIND DIRECTION BREAKOUT
WEATHER BY HOUR - JANUARY 31, 2013
[ °C ]   °F
Local TimeTemperatureDewpointHumidityBarometerVisibilityWind DirectionWind SpeedGust SpeedPrecipitationEventsConditions
1:53 AM53.1 °F37.9 °F57 %30.01 in10.0 miNW (310°)15.0 mph23.0 mphScattered Clouds
2:53 AM50.0 °F34.0 °F54 %30.04 in10.0 miWNW (290°)17.3 mphClear
3:53 AM48.0 °F33.1 °F56 %30.06 in10.0 miNW (310°)11.5 mphClear
4:53 AM46.0 °F27.0 °F47 %30.09 in10.0 miNW (320°)13.8 mph20.7 mphClear
5:53 AM44.1 °F26.1 °F49 %30.11 in10.0 miNW (320°)8.1 mphClear
6:53 AM41.0 °F28.0 °F60 %30.14 in10.0 miWNW (290°)5.8 mphClear
7:53 AM41.0 °F28.9 °F62 %30.16 in10.0 miWNW (290°)4.6 mphClear
8:53 AM45.0 °F28.9 °F53 %30.19 in10.0 miNW (310°)6.9 mphClear
9:53 AM48.0 °F25.0 °F41 %30.21 in10.0 miNW (310°)15.0 mphClear
10:53 AM50.0 °F26.1 °F39 %30.22 in10.0 miNW (310°)8.1 mphClear
11:53 AM52.0 °F21.9 °F31 %30.22 in10.0 miWNW (300°)9.2 mph18.4 mphClear
12:53 PM55.0 °F21.9 °F28 %30.22 in10.0 miWNW (290°)16.1 mphClear
1:53 PM57.0 °F21.9 °F26 %30.20 in10.0 miNW (310°)15.0 mph20.7 mphClear
2:53 PM57.9 °F19.9 °F23 %30.19 in10.0 miNW (310°)13.8 mph20.7 mphClear
3:53 PM57.9 °F18.0 °F21 %30.18 in10.0 miNW (320°)13.8 mphClear
4:53 PM57.9 °F18.0 °F21 %30.19 in10.0 miNNW (340°)11.5 mphClear
5:53 PM55.0 °F19.9 °F25 %30.20 in10.0 miNW (310°)4.6 mphClear
6:53 PM45.0 °F28.9 °F53 %30.22 in10.0 miCalmClear
7:53 PM42.1 °F28.9 °F60 %30.24 in10.0 miCalmClear
8:53 PM39.0 °F30.0 °F70 %30.27 in10.0 miCalmClear
9:53 PM37.9 °F30.0 °F73 %30.28 in10.0 miCalmClear
10:53 PM36.0 °F28.9 °F76 %30.29 in10.0 miCalmClear
11:53 PM33.1 °F28.0 °F82 %30.29 in10.0 miCalmClear
Hourly data recorded from KTLH, located miles away from Mount Pleasant, Florida







STORIES FROM OUR PARTNERS